Todos
Gunnedah Airport (Gunnedah, New South Wales) GUH Condições meteorológicas
|
Gunnedah, New South Wales (GUH / YGDH)
Céu Limpo
Vento Ligeiro |
|
16 °C |
There is no TAF data available at GUH or any nearby airports.
Histórico recente de METAR GUH
| Date | Time (AEST) | Flight Rules | Wind Dir. | Speed | Type | Height AGL (ft) | Visibility | Temp (°C) | Temp (°F) | Dew Point (°C) | Dew Point (°F) | Rel. Humid. | Pressure | Density Altitude | Remarks |
|---|---|---|---|---|---|---|---|---|---|---|---|---|---|---|---|
| 03-Mai | 07:00 | n/a | 120° | 8 kt | Missing | 16° | 60° | 10° | 50° | 68% | 1021 mb | 753 ft | |||
| 03-Mai | 06:00 | n/a | 120° | 7 kt | Missing | 16° | 60° | 10° | 50° | 68% | 1021 mb | 753 ft | |||
| 03-Mai | 05:00 | n/a | 120° | 7 kt | Missing | 16° | 60° | 9° | 48° | 63% | 1021 mb | 753 ft | |||
| 03-Mai | 04:00 | n/a | 110° | 9 kt | Missing | 17° | 62° | 9° | 48° | 59% | 1020 mb | 902 ft | |||
| 03-Mai | 03:00 | n/a | 120° | 8 kt | Missing | 18° | 64° | 9° | 48° | 56% | 1021 mb | 993 ft | |||
| 03-Mai | 02:00 | n/a | 120° | 5 kt | Missing | 17° | 62° | 9° | 48° | 59% | 1021 mb | 873 ft | |||
| 03-Mai | 01:00 | n/a | 100° | 4 kt | Missing | 18° | 64° | 10° | 50° | 59% | 1021 mb | 993 ft | |||
| 03-Mai | 00:00 | n/a | 110° | 5 kt | Missing | 18° | 64° | 10° | 50° | 59% | 1021 mb | 993 ft | |||
| 02-Mai | 23:00 | n/a | 90° | 6 kt | Missing | 19° | 66° | 9° | 48° | 52% | 1021 mb | 1.113 ft | |||
| 02-Mai | 22:00 | n/a | 90° | 10 kt | Missing | 20° | 68° | 10° | 50° | 53% | 1021 mb | 1.233 ft | |||
| 02-Mai | 21:00 | n/a | 120° | 7 kt | Missing | 21° | 69° | 9° | 48° | 46% | 1021 mb | 1.353 ft | |||
| 02-Mai | 20:00 | n/a | 110° | 6 kt | Missing | 21° | 69° | 8° | 46° | 43% | 1021 mb | 1.353 ft | |||
| 02-Mai | 19:00 | n/a | 110° | 8 kt | Missing | 22° | 71° | 8° | 46° | 41% | 1020 mb | 1.502 ft | |||
| 02-Mai | 18:00 | n/a | 120° | 8 kt | Missing | 23° | 73° | 7° | 44° | 36% | 1019 mb | 1.652 ft | |||
| 02-Mai | 17:00 | n/a | 110° | 8 kt | Missing | 26° | 78° | 9° | 48° | 34% | 1019 mb | 2.012 ft | |||
| 02-Mai | 16:00 | n/a | 100° | 8 kt | Missing | 27° | 80° | 9° | 48° | 32% | 1019 mb | 2.132 ft | |||
| 02-Mai | 15:00 | n/a | 40° | 6 kt | Missing | 28° | 82° | 9° | 48° | 30% | 1019 mb | 2.252 ft | |||
| 02-Mai | 14:00 | n/a | 110° | 5 kt | Missing | 28° | 82° | 10° | 50° | 32% | 1019 mb | 2.252 ft | |||
| 02-Mai | 13:00 | n/a | 80° | 10 kt | Missing | 27° | 80° | 10° | 50° | 34% | 1020 mb | 2.102 ft | |||
| 02-Mai | 12:00 | n/a | 80° | 11 kt | Missing | 26° | 78° | 10° | 50° | 37% | 1021 mb | 1.953 ft | |||
| 02-Mai | 11:00 | n/a | 80° | 11 kt | Missing | 26° | 78° | 11° | 51° | 39% | 1023 mb | 1.894 ft | |||
| 02-Mai | 10:00 | n/a | 100° | 11 kt | Missing | 24° | 75° | 12° | 53° | 47% | 1024 mb | 1.624 ft | |||
| 02-Mai | 09:00 | n/a | 90° | 11 kt | Missing | 22° | 71° | 12° | 53° | 53% | 1024 mb | 1.384 ft | |||
| 02-Mai | 08:00 | n/a | 120° | 6 kt | Missing | 20° | 68° | 12° | 53° | 60% | 1024 mb | 1.144 ft |
Entrar
| Seu navegador não suporta. atualize seu navegador |
